Date String (YYYY-MM-DD hh:mm:ss) UTC,Instrument flags,absolute air pressure of the measurement (hPa),sample flow rate (lpm),inlet stack bypass flow (lpm),air temperature of the measurement (°C),ambient temperature measured by the external sensor (°C),aerosol sample conditioner tube jacket temperature (°C),OPC LED temperature (°C),internal box temperature (°C),relative humidity of the measurement (%),span deviation,mass concentration of particles derived from Lorenz-Mie calculation of OPC scattering (μg/m³),mass concentration of particles derived from Lorenz-Mie calculation of OPC scattering (μg/m³),mass concentration of particles derived from Lorenz-Mie calculation of OPC scattering (μg/m³)
DateTimeUTC,F1_M11,P_M11,Q1_M11,Q2_M11,T1_M11,T2_M11,T3_M11,T4_M11,T5_M11,U1_M11,ZSPAN_M11,X0_M11,X2_M11,X1_M11
2023-10-01 07:00:00,SystemResetWarning,0825.6,5.00,000.00,028.4,024.9,000.0,036.9,029.9,20.2,0000.0,0006.30,0002.21,0001.66
2023-10-01 07:01:00,SystemResetWarning,0825.5,5.00,000.00,028.4,025.3,000.0,036.9,029.9,20.3,0000.0,0006.37,0002.24,0001.65
2023-10-01 07:02:00,SystemResetWarning,0825.6,5.00,000.00,028.4,025.7,000.0,036.9,029.9,20.4,0000.0,0006.46,0002.29,0001.65
2023-10-01 07:03:00,SystemResetWarning,0825.6,5.00,000.00,028.3,026.0,000.0,036.9,030.0,20.3,0000.0,0006.45,0002.30,0001.65
2023-10-01 07:04:00,SystemResetWarning,0825.6,5.00,000.00,028.3,026.2,000.0,036.9,030.0,20.2,0000.0,0006.16,0002.27,0001.66
2023-10-01 07:05:00,SystemResetWarning,0825.5,5.00,000.00,028.4,026.5,000.0,036.9,030.1,20.1,0000.0,0005.95,0002.34,0001.69
2023-10-01 07:06:00,SystemResetWarning,0825.6,5.00,000.00,028.4,026.7,000.0,036.9,030.1,20.0,0000.0,0004.74,0002.44,0001.74
2023-10-01 07:07:00,SystemResetWarning,0825.6,5.00,000.00,028.4,026.8,000.0,036.9,030.1,20.0,0000.0,0005.80,0002.47,0001.79
2023-10-01 07:08:00,SystemResetWarning,0825.7,5.01,000.00,028.4,026.9,000.0,036.9,030.1,20.0,0000.0,0006.21,0002.56,0001.86
2023-10-01 07:09:00,SystemResetWarning,0825.8,5.00,000.00,028.4,027.0,000.0,036.9,030.2,19.9,0000.0,0006.80,0002.75,0001.93
2023-10-01 07:10:00,SystemResetWarning,0825.8,5.00,000.00,028.5,027.1,000.0,036.9,030.2,19.8,0000.0,0006.96,0002.88,0002.02
2023-10-01 07:11:00,SystemResetWarning,0825.8,4.99,000.00,028.5,027.2,000.0,036.9,030.3,19.8,0000.0,0007.11,0002.99,0002.11
2023-10-01 07:12:00,SystemResetWarning,0825.9,5.00,000.00,028.5,027.3,000.0,036.9,030.3,19.8,0000.0,0007.51,0003.10,0002.21
2023-10-01 07:13:00,SystemResetWarning,0825.9,5.00,000.00,028.5,027.4,000.0,036.9,030.3,19.7,0000.0,0008.28,0003.11,0002.27
2023-10-01 07:14:00,SystemResetWarning,0825.9,5.00,000.00,028.6,027.4,000.0,037.0,030.4,19.7,0000.0,0008.70,0003.13,0002.34
2023-10-01 07:15:00,SystemResetWarning,0825.8,5.00,000.00,028.6,027.5,000.0,037.0,030.4,19.8,0000.0,0008.86,0003.21,0002.40
2023-10-01 07:16:00,SystemResetWarning,0825.8,5.00,000.00,028.6,027.5,000.0,037.0,030.4,19.7,0000.0,0008.96,0003.25,0002.45
2023-10-01 07:17:00,SystemResetWarning,0825.8,5.00,000.00,028.7,027.6,000.0,037.0,030.4,19.7,0000.0,0009.84,0003.28,0002.49
2023-10-01 07:18:00,SystemResetWarning,0825.8,5.00,000.00,028.7,027.6,000.0,037.0,030.5,19.7,0000.0,0009.92,0003.35,0002.53
2023-10-01 07:19:00,SystemResetWarning,0825.8,5.01,000.00,028.7,027.6,000.0,037.1,030.5,19.7,0000.0,0009.80,0003.36,0002.54
2023-10-01 07:20:00,SystemResetWarning,0825.8,5.01,000.00,028.7,027.7,000.0,037.1,030.5,19.8,0000.0,0009.79,0003.31,0002.54
2023-10-01 07:21:00,SystemResetWarning,0825.9,4.97,000.00,028.8,026.7,000.0,037.1,030.5,19.8,0000.0,0009.81,0003.30,0002.53
2023-10-01 07:22:00,SystemResetWarning,0825.9,5.01,000.00,028.7,024.9,000.0,037.0,030.3,19.8,0000.0,0009.76,0003.30,0002.53
2023-10-01 07:23:00,SystemResetWarning,0825.9,5.01,000.00,028.6,024.5,000.0,037.0,030.1,19.8,0000.0,0009.52,0003.31,0002.54
2023-10-01 07:24:00,SystemResetWarning,0825.9,5.00,000.00,028.5,024.7,000.0,037.0,029.9,20.0,0000.0,0009.13,0003.37,0002.56
2023-10-01 07:25:00,SystemResetWarning,0825.9,4.99,000.00,028.4,025.1,000.0,037.0,029.9,20.2,0000.0,0009.18,0003.40,0002.59
2023-10-01 07:26:00,SystemResetWarning,0825.9,5.00,000.00,028.4,025.5,000.0,037.0,029.9,20.2,0000.0,0009.23,0003.42,0002.61
2023-10-01 07:27:00,SystemResetWarning,0825.9,5.01,000.00,028.4,025.8,000.0,036.9,030.0,20.1,0000.0,0009.35,0003.43,0002.62
2023-10-01 07:28:00,SystemResetWarning,0825.9,5.01,000.00,028.3,026.1,000.0,036.9,030.0,20.1,0000.0,0008.37,0003.42,0002.62
2023-10-01 07:29:00,SystemResetWarning,0825.9,5.00,000.00,028.3,026.3,000.0,036.9,030.0,20.0,0000.0,0007.83,0003.40,0002.61
2023-10-01 07:30:00,SystemResetWarning,0825.9,4.99,000.00,028.4,026.5,000.0,036.9,030.1,19.9,0000.0,0007.70,0003.37,0002.61
2023-10-01 07:31:00,SystemResetWarning,0825.9,4.99,000.00,028.4,026.7,000.0,036.9,030.1,19.9,0000.0,0007.68,0003.42,0002.62
2023-10-01 07:32:00,SystemResetWarning,0825.9,5.00,000.00,028.4,026.8,000.0,036.9,030.1,19.9,0000.0,0007.74,0003.43,0002.61
2023-10-01 07:33:00,SystemResetWarning,0826.0,5.00,000.00,028.4,026.9,000.0,036.9,030.1,19.8,0000.0,0008.29,0003.46,0002.62
2023-10-01 07:34:00,SystemResetWarning,0826.0,5.00,000.00,028.4,027.0,000.0,036.9,030.1,19.7,0000.0,0008.39,0003.46,0002.62
2023-10-01 07:35:00,SystemResetWarning,0826.0,5.01,000.00,028.4,027.1,000.0,036.9,030.2,19.6,0000.0,0008.19,0003.45,0002.61
2023-10-01 07:36:00,SystemResetWarning,0826.0,5.00,000.00,028.5,027.1,000.0,036.9,030.2,19.5,0000.0,0007.70,0003.43,0002.61
2023-10-01 07:37:00,SystemResetWarning,0826.0,4.99,000.00,028.5,027.2,000.0,036.9,030.2,19.4,0000.0,0007.80,0003.42,0002.63
2023-10-01 07:38:00,SystemResetWarning,0826.0,5.00,000.00,028.5,027.2,000.0,036.9,030.2,19.4,0000.0,0007.51,0003.42,0002.67
2023-10-01 07:39:00,SystemResetWarning,0826.0,5.00,000.00,028.5,027.3,000.0,036.9,030.3,19.2,0000.0,0007.92,0003.44,0002.70
2023-10-01 07:40:00,SystemResetWarning,0826.0,5.00,000.00,028.5,027.3,000.0,036.9,030.3,19.2,0000.0,0008.32,0003.45,0002.72
2023-10-01 07:41:00,SystemResetWarning,0826.0,4.99,000.00,028.6,027.3,000.0,037.0,030.3,19.1,0000.0,0009.25,0003.51,0002.77
2023-10-01 07:42:00,SystemResetWarning,0826.0,5.00,000.00,028.6,027.4,000.0,037.0,030.3,19.1,0000.0,0009.65,0003.54,0002.81
2023-10-01 07:43:00,SystemResetWarning,0826.1,5.00,000.00,028.6,027.4,000.0,037.0,030.4,19.1,0000.0,0010.02,0003.54,0002.84
2023-10-01 07:44:00,SystemResetWarning,0826.2,4.99,000.00,028.6,027.4,000.0,037.0,030.4,19.0,0000.0,0009.83,0003.51,0002.86
2023-10-01 07:45:00,SystemResetWarning,0826.1,5.01,000.00,028.6,027.4,000.0,037.0,030.4,19.0,0000.0,0009.80,0003.52,0002.88
2023-10-01 07:46:00,SystemResetWarning,0826.1,4.99,000.00,028.7,026.6,000.0,037.0,030.4,18.9,0000.0,0009.94,0003.53,0002.92
2023-10-01 07:47:00,SystemResetWarning,0826.1,5.00,000.00,028.6,024.8,000.0,036.9,030.2,18.9,0000.0,0010.02,0003.54,0002.93
2023-10-01 07:48:00,SystemResetWarning,0826.0,5.00,000.00,028.5,024.4,000.0,036.9,030.0,19.0,0000.0,0009.91,0003.57,0002.92
2023-10-01 07:49:00,SystemResetWarning,0826.0,5.01,000.00,028.4,024.5,000.0,036.9,029.8,19.0,0000.0,0009.92,0003.58,0002.91
2023-10-01 07:50:00,SystemResetWarning,0825.9,5.01,000.00,028.3,024.9,000.0,036.9,029.8,19.1,0000.0,0009.74,0003.61,0002.91
2023-10-01 07:51:00,SystemResetWarning,0825.9,5.00,000.00,028.3,025.3,000.0,036.9,029.8,19.1,0000.0,0009.29,0003.60,0002.90
2023-10-01 07:52:00,SystemResetWarning,0825.9,5.00,000.00,028.2,025.6,000.0,036.9,029.8,19.1,0000.0,0008.98,0003.57,0002.89
2023-10-01 07:53:00,SystemResetWarning,0825.9,5.00,000.00,028.2,025.9,000.0,036.8,029.9,19.0,0000.0,0008.48,0003.54,0002.87
2023-10-01 07:54:00,SystemResetWarning,0825.9,5.00,000.00,028.2,026.1,000.0,036.8,029.9,19.0,0000.0,0008.34,0003.52,0002.86
2023-10-01 07:55:00,SystemResetWarning,0826.0,5.00,000.00,028.2,026.3,000.0,036.8,029.9,19.0,0000.0,0008.03,0003.52,0002.86
2023-10-01 07:56:00,SystemResetWarning,0825.9,5.00,000.00,028.2,026.5,000.0,036.8,030.0,19.0,0000.0,0007.89,0003.49,0002.86
2023-10-01 07:57:00,SystemResetWarning,0825.9,5.00,000.00,028.3,026.6,000.0,036.8,030.0,18.9,0000.0,0008.49,0003.50,0002.87
2023-10-01 07:58:00,SystemResetWarning,0825.9,5.00,000.00,028.3,026.7,000.0,036.8,030.0,18.9,0000.0,0008.63,0003.51,0002.89
2023-10-01 07:59:00,SystemResetWarning,0825.9,5.00,000.00,028.3,026.8,000.0,036.8,030.0,18.9,0000.0,0008.62,0003.51,0002.91
